View from above orbital plane
|
View from above satellite
|
Ground track
|
The orbit data is extracted from the following two-line orbital elements,
1 40922U 15050C 21020.51054027 .00000040 00000-0 21413-3 0 9995
2 40922 82.4862 227.6760 0016101 21.8221 338.3541 12.42885397241692
Epoch (UTC): | 20 January 2021 12:15:10 |
Eccentricity: | 0.0016101 |
inclination: | 82.4862° |
perigee height: | 1482 km |
apogee height: | 1507 km |
right ascension of ascending node: | 227.6760° |
argument of perigee: | 21.8221° |
revolutions per day: | 12.42885397 |
mean anomaly at epoch: | 338.3541° |
orbit number at epoch: | 24169 |
The dashed part of the orbit path shows where the satellite is in the earth's shadow,
|
|